QPF
0.01 0.00 0.00 0.01 0.01 0.01 0.02 0.02 0.03 0.01 0.01 0.02 0.03 0.03 0.02 0.02 0.02 0.01 0.00 0.00 0.00 0.00 0.00 0.00 0.00 0.00 0.00 0.00 0.00 0.00 0.00 0.00 0.01 0.01 0.01 0.01 0.01 0.01 0.01 0.01 0.01 0.01 0.02 0.02
0.01 0.00 0.01 0.01 0.01 0.01 0.01 0.01 0.01 0.01 0.01 0.02 0.03 0.03 0.03 0.03 0.03 0.01 0.00 0.00 0.00 0.01 0.01 0.00 0.00 0.00 0.00 0.00 0.00 0.00 0.01 0.01 0.01 0.01 0.01 0.01 0.01 0.01 0.01 0.01 0.01 0.01 0.01 0.02
0.02 0.01 0.01 0.02 0.01 0.01 0.01 0.02 0.02 0.02 0.02 0.01 0.02 0.03 0.03 0.04 0.04 0.03 0.01 0.01 0.01 0.01 0.00 0.00 0.01 0.01 0.01 0.01 0.01 0.01 0.01 0.01 0.01 0.01 0.02 0.01 0.01 0.01 0.01 0.01 0.01 0.01 0.01 0.02
0.04 0.03 0.03 0.02 0.01 0.01 0.01 0.02 0.02 0.02 0.01 0.01 0.02 0.02 0.02 0.03 0.03 0.03 0.02 0.02 0.01 0.01 0.01 0.01 0.01 0.01 0.01 0.01 0.01 0.01 0.01 0.01 0.01 0.01 0.02 0.02 0.02 0.01 0.01 0.01 0.01 0.02 0.02 0.02
0.05 0.04 0.02 0.01 0.01 0.01 0.01 0.02 0.01 0.01 0.01 0.01 0.01 0.01 0.01 0.03 0.03 0.03 0.03 0.03 0.02 0.02 0.02 0.02 0.02 0.01 0.01 0.01 0.01 0.02 0.02 0.02 0.01 0.01 0.01 0.01 0.02 0.02 0.01 0.01 0.01 0.01 0.02 0.03
0.06 0.05 0.02 0.01 0.00 0.00 0.01 0.01 0.00 0.01 0.01 0.01 0.01 0.01 0.02 0.03 0.03 0.03 0.03 0.03 0.03 0.03 0.03 0.03 0.02 0.02 0.01 0.01 0.01 0.03 0.03 0.02 0.01 0.01 0.01 0.01 0.01 0.01 0.01 0.01 0.01 0.01 0.02 0.02
0.05 0.04 0.02 0.01 0.00 0.00 0.01 0.01 0.01 0.01 0.01 0.02 0.02 0.02 0.02 0.02 0.02 0.03 0.03 0.03 0.03 0.02 0.02 0.02 0.02 0.03 0.02 0.01 0.01 0.03 0.03 0.02 0.01 0.01 0.01 0.01 0.01 0.01 0.01 0.01 0.01 0.01 0.01 0.02
0.03 0.04 0.02 0.01 0.01 0.01 0.01 0.01 0.01 0.01 0.01 0.01 0.01 0.01 0.02 0.02 0.02 0.02 0.02 0.02 0.02 0.02 0.02 0.02 0.02 0.02 0.02 0.01 0.02 0.02 0.03 0.03 0.01 0.01 0.00 0.01 0.01 0.01 0.01 0.01 0.01 0.01 0.02 0.02
0.02 0.02 0.01 0.01 0.01 0.01 0.01 0.01 0.01 0.01 0.01 0.01 0.01 0.01 0.01 0.02 0.01 0.01 0.01 0.01 0.02 0.02 0.01 0.01 0.01 0.01 0.02 0.02 0.02 0.02 0.03 0.04 0.02 0.01 0.01 0.01 0.01 0.01 0.01 0.01 0.01 0.02 0.02 0.03
0.01 0.01 0.01 0.01 0.01 0.01 0.01 0.01 0.01 0.01 0.01 0.01 0.00 0.00 0.01 0.02 0.01 0.01 0.01 0.01 0.01 0.01 0.01 0.01 0.01 0.01 0.02 0.02 0.02 0.01 0.02 0.04 0.03 0.01 0.01 0.01 0.01 0.01 0.01 0.01 0.02 0.02 0.03 0.03
0.01 0.01 0.01 0.01 0.01 0.00 0.00 0.00 0.00 0.00 0.00 0.00 0.00 0.00 0.01 0.02 0.01 0.01 0.01 0.01 0.01 0.01 0.01 0.01 0.01 0.01 0.02 0.03 0.02 0.02 0.01 0.02 0.03 0.02 0.02 0.01 0.01 0.02 0.02 0.01 0.02 0.03 0.03 0.04
0.01 0.00 0.01 0.00 0.00 0.00 0.00 0.00 0.00 0.00 0.00 0.00 0.00 0.01 0.01 0.02 0.01 0.01 0.01 0.01 0.01 0.01 0.01 0.01 0.01 0.01 0.01 0.03 0.03 0.02 0.01 0.01 0.02 0.02 0.01 0.01 0.01 0.02 0.02 0.02 0.02 0.03 0.04 0.04
0.00 0.00 0.00 0.00 0.00 0.00 0.00 0.00 0.00 0.00 0.00 0.00 0.00 0.01 0.01 0.02 0.02 0.01 0.01 0.01 0.02 0.02 0.01 0.01 0.01 0.01 0.01 0.02 0.03 0.03 0.02 0.01 0.01 0.02 0.02 0.01 0.01 0.01 0.01 0.02 0.02 0.03 0.04 0.04
0.00 0.00 0.00 0.00 0.00 0.00 0.00 0.00 0.00 0.00 0.00 0.00 0.01 0.01 0.01 0.02 0.01 0.01 0.01 0.01 0.01 0.01 0.01 0.01 0.01 0.01 0.01 0.01 0.02 0.02 0.02 0.01 0.01 0.02 0.02 0.01 0.01 0.01 0.01 0.02 0.02 0.03 0.03 0.04
0.00 0.00 0.00 0.00 0.00 0.00 0.00 0.00 0.00 0.00 0.00 0.00 0.00 0.00 0.01 0.01 0.01 0.01 0.01 0.01 0.01 0.01 0.01 0.01 0.01 0.01 0.01 0.01 0.01 0.02 0.02 0.02 0.02 0.02 0.02 0.01 0.01 0.01 0.01 0.02 0.03 0.03 0.04 0.04
0.00 0.00 0.00 0.00 0.00 0.00 0.00 0.00 0.00 0.00 0.00 0.00 0.00 0.01 0.01 0.01 0.02 0.01 0.01 0.01 0.01 0.01 0.01 0.01 0.01 0.01 0.01 0.01 0.01 0.01 0.02 0.02 0.02 0.02 0.02 0.02 0.02 0.02 0.02 0.03 0.03 0.03 0.03 0.03
0.00 0.00 0.00 0.00 0.00 0.00 0.00 0.00 0.00 0.00 0.00 0.00 0.01 0.01 0.01 0.01 0.01 0.01 0.01 0.01 0.01 0.01 0.02 0.02 0.01 0.01 0.01 0.01 0.01 0.01 0.01 0.01 0.02 0.02 0.02 0.02 0.02 0.02 0.02 0.03 0.03 0.03 0.03 0.03
0.00 0.00 0.00 0.00 0.00 0.01 0.01 0.00 0.00 0.00 0.00 0.00 0.01 0.01 0.01 0.01 0.01 0.02 0.02 0.02 0.02 0.02 0.02 0.02 0.02 0.02 0.01 0.01 0.01 0.01 0.01 0.01 0.02 0.02 0.02 0.02 0.02 0.02 0.02 0.02 0.02 0.03 0.02 0.02
0.00 0.00 0.00 0.00 0.00 0.01 0.01 0.00 0.00 0.00 0.00 0.00 0.01 0.01 0.01 0.01 0.02 0.02 0.02 0.02 0.02 0.02 0.02 0.03 0.03 0.02 0.02 0.02 0.02 0.01 0.01 0.02 0.02 0.02 0.02 0.02 0.03 0.03 0.02 0.02 0.02 0.02 0.02 0.02
0.00 0.00 0.00 0.00 0.01 0.01 0.00 0.00 0.00 0.00 0.00 0.01 0.01 0.01 0.01 0.01 0.01 0.02 0.02 0.03 0.03 0.03 0.03 0.03 0.02 0.02 0.02 0.02 0.02 0.01 0.01 0.01 0.01 0.01 0.01 0.02 0.02 0.02 0.02 0.02 0.02 0.02 0.02 0.02
0.00 0.00 0.00 0.00 0.00 0.01 0.00 0.00 0.01 0.01 0.01 0.01 0.01 0.01 0.01 0.01 0.01 0.01 0.02 0.02 0.03 0.03 0.02 0.02 0.02 0.02 0.02 0.02 0.01 0.01 0.01 0.01 0.01 0.01 0.02 0.01 0.01 0.02 0.02 0.02 0.02 0.02 0.02 0.02
0.00 0.00 0.00 0.00 0.00 0.00 0.00 0.01 0.01 0.01 0.01 0.01 0.01 0.01 0.01 0.01 0.01 0.01 0.01 0.02 0.03 0.03 0.03 0.02 0.02 0.02 0.02 0.01 0.01 0.01 0.02 0.01 0.01 0.01 0.01 0.01 0.01 0.01 0.02 0.02 0.02 0.02 0.02 0.02
0.00 0.00 0.00 0.00 0.00 0.00 0.00 0.00 0.01 0.01 0.01 0.01 0.01 0.01 0.01 0.01 0.01 0.01 0.02 0.02 0.02 0.03 0.03 0.03 0.03 0.02 0.02 0.01 0.01 0.01 0.01 0.01 0.01 0.01 0.01 0.01 0.01 0.02 0.02 0.02 0.03 0.02 0.03 0.03
0.00 0.00 0.00 0.00 0.00 0.00 0.00 0.00 0.01 0.01 0.01 0.01 0.01 0.01 0.01 0.01 0.01 0.01 0.02 0.02 0.02 0.02 0.02 0.03 0.03 0.02 0.02 0.01 0.01 0.01 0.01 0.01 0.01 0.02 0.02 0.02 0.01 0.01 0.01 0.02 0.02 0.02 0.02 0.03
0.00 0.00 0.00 0.00 0.00 0.00 0.00 0.00 0.00 0.00 0.00 0.01 0.01 0.01 0.01 0.01 0.01 0.01 0.01 0.01 0.01 0.01 0.01 0.02 0.02 0.02 0.02 0.02 0.01 0.01 0.01 0.01 0.02 0.02 0.02 0.02 0.02 0.02 0.02 0.02 0.02 0.02 0.02 0.02
0.00 0.00 0.00 0.00 0.00 0.00 0.00 0.00 0.00 0.00 0.00 0.00 0.00 0.00 0.00 0.00 0.01 0.01 0.01 0.01 0.01 0.01 0.01 0.01 0.02 0.02 0.02 0.02 0.01 0.01 0.01 0.01 0.02 0.02 0.02 0.02 0.02 0.02 0.02 0.02 0.02 0.02 0.02 0.03
0.00 0.00 0.00 0.00 0.00 0.00 0.00 0.00 0.00 0.00 0.00 0.00 0.00 0.00 0.00 0.00 0.01 0.01 0.01 0.01 0.01 0.01 0.01 0.01 0.01 0.02 0.02 0.02 0.02 0.02 0.01 0.01 0.02 0.02 0.02 0.02 0.03 0.03 0.03 0.02 0.02 0.02 0.02 0.02
MSLP
1014.72 1014.76 1014.69 1014.46 1014.04 1013.43 1012.65 1011.74 1010.77 1009.79 1008.89 1008.14 1007.59 1007.27 1007.17 1007.25 1007.45 1007.70 1007.92 1008.02 1007.97 1007.73 1007.30 1006.72 1006.04 1005.31 1004.60 1003.96 1003.43 1003.04 1002.79 1002.66 1002.65 1002.73 1002.89 1003.12 1003.42 1003.77 1004.20 1004.68 1005.21 1005.78 1006.36 1006.90
1014.01 1013.90 1013.64 1013.22 1012.63 1011.91 1011.09 1010.24 1009.40 1008.64 1008.02 1007.56 1007.30 1007.21 1007.26 1007.41 1007.59 1007.72 1007.76 1007.65 1007.37 1006.92 1006.32 1005.62 1004.86 1004.10 1003.40 1002.79 1002.31 1001.95 1001.73 1001.63 1001.63 1001.73 1001.92 1002.19 1002.53 1002.95 1003.44 1003.98 1004.57 1005.18 1005.76 1006.29
1013.46 1013.21 1012.78 1012.19 1011.46 1010.65 1009.82 1009.02 1008.32 1007.76 1007.38 1007.18 1007.15 1007.25 1007.42 1007.59 1007.71 1007.72 1007.57 1007.24 1006.74 1006.09 1005.33 1004.52 1003.70 1002.93 1002.25 1001.69 1001.25 1000.95 1000.78 1000.72 1000.75 1000.89 1001.11 1001.41 1001.80 1002.27 1002.81 1003.41 1004.03 1004.64 1005.21 1005.70
1013.04 1012.68 1012.13 1011.41 1010.59 1009.72 1008.89 1008.16 1007.59 1007.21 1007.02 1007.02 1007.17 1007.39 1007.61 1007.77 1007.81 1007.67 1007.34 1006.81 1006.11 1005.29 1004.40 1003.50 1002.64 1001.87 1001.23 1000.72 1000.35 1000.12 1000.00 999.99 1000.07 1000.23 1000.48 1000.82 1001.24 1001.74 1002.31 1002.91 1003.53 1004.13 1004.66 1005.08
1012.66 1012.23 1011.61 1010.83 1009.96 1009.09 1008.31 1007.66 1007.21 1006.97 1006.94 1007.08 1007.33 1007.61 1007.84 1007.94 1007.86 1007.57 1007.06 1006.36 1005.49 1004.53 1003.54 1002.58 1001.71 1000.97 1000.37 999.93 999.64 999.47 999.41 999.45 999.57 999.76 1000.04 1000.39 1000.81 1001.31 1001.86 1002.45 1003.03 1003.57 1004.03 1004.37
1012.21 1011.76 1011.12 1010.34 1009.51 1008.70 1008.00 1007.46 1007.13 1007.01 1007.09 1007.31 1007.60 1007.87 1008.05 1008.06 1007.85 1007.41 1006.74 1005.88 1004.89 1003.83 1002.78 1001.80 1000.94 1000.23 999.69 999.32 999.10 999.00 998.99 999.07 999.22 999.43 999.71 1000.05 1000.45 1000.91 1001.41 1001.93 1002.44 1002.89 1003.26 1003.52
1011.57 1011.14 1010.56 1009.86 1009.13 1008.45 1007.87 1007.47 1007.25 1007.24 1007.39 1007.64 1007.92 1008.14 1008.22 1008.11 1007.77 1007.18 1006.38 1005.40 1004.31 1003.19 1002.11 1001.14 1000.31 999.65 999.17 998.86 998.70 998.65 998.69 998.80 998.96 999.17 999.42 999.72 1000.07 1000.46 1000.88 1001.30 1001.71 1002.06 1002.33 1002.50
1010.70 1010.35 1009.88 1009.33 1008.77 1008.25 1007.85 1007.59 1007.50 1007.57 1007.76 1008.00 1008.23 1008.36 1008.33 1008.09 1007.61 1006.89 1005.97 1004.91 1003.77 1002.62 1001.54 1000.59 999.81 999.20 998.77 998.52 998.39 998.38 998.44 998.55 998.71 998.89 999.10 999.34 999.61 999.91 1000.22 1000.53 1000.82 1001.06 1001.25 1001.35
1009.65 1009.42 1009.11 1008.75 1008.39 1008.08 1007.86 1007.77 1007.80 1007.94 1008.14 1008.35 1008.50 1008.52 1008.36 1007.98 1007.37 1006.55 1005.55 1004.44 1003.27 1002.13 1001.07 1000.16 999.41 998.84 998.46 998.23 998.13 998.12 998.18 998.28 998.40 998.54 998.69 998.86 999.04 999.23 999.43 999.63 999.81 999.96 1000.07 1000.14
1008.57 1008.48 1008.34 1008.19 1008.05 1007.96 1007.93 1007.99 1008.11 1008.30 1008.49 1008.64 1008.69 1008.60 1008.31 1007.81 1007.10 1006.19 1005.14 1004.00 1002.84 1001.72 1000.70 999.82 999.11 998.57 998.20 997.98 997.87 997.85 997.88 997.94 998.02 998.10 998.19 998.28 998.37 998.47 998.57 998.67 998.76 998.84 998.91 998.97
1007.64 1007.69 1007.73 1007.78 1007.85 1007.94 1008.08 1008.25 1008.45 1008.64 1008.80 1008.88 1008.82 1008.61 1008.20 1007.59 1006.80 1005.84 1004.76 1003.62 1002.49 1001.40 1000.42 999.57 998.89 998.36 997.99 997.75 997.61 997.55 997.54 997.55 997.58 997.61 997.64 997.66 997.69 997.71 997.73 997.76 997.79 997.83 997.89 997.98
1007.06 1007.24 1007.43 1007.65 1007.88 1008.12 1008.37 1008.61 1008.82 1008.99 1009.09 1009.06 1008.90 1008.56 1008.05 1007.35 1006.50 1005.51 1004.44 1003.32 1002.22 1001.17 1000.23 999.42 998.75 998.22 997.83 997.55 997.37 997.26 997.20 997.17 997.15 997.13 997.11 997.10 997.08 997.06 997.04 997.04 997.05 997.08 997.16 997.30
1006.96 1007.24 1007.55 1007.88 1008.21 1008.53 1008.82 1009.07 1009.26 1009.36 1009.36 1009.22 1008.94 1008.49 1007.88 1007.12 1006.22 1005.22 1004.16 1003.08 1002.02 1001.02 1000.12 999.33 998.66 998.12 997.70 997.39 997.17 997.01 996.91 996.84 996.79 996.75 996.72 996.69 996.66 996.64 996.62 996.61 996.63 996.69 996.81 997.01
1007.36 1007.71 1008.09 1008.47 1008.84 1009.17 1009.44 1009.64 1009.75 1009.75 1009.62 1009.36 1008.95 1008.40 1007.70 1006.88 1005.96 1004.96 1003.92 1002.88 1001.87 1000.91 1000.04 999.27 998.61 998.07 997.63 997.29 997.03 996.84 996.71 996.63 996.57 996.54 996.53 996.52 996.52 996.52 996.53 996.56 996.62 996.72 996.89 997.15
1008.19 1008.57 1008.97 1009.36 1009.70 1009.98 1010.18 1010.28 1010.27 1010.14 1009.87 1009.48 1008.95 1008.29 1007.52 1006.66 1005.71 1004.72 1003.71 1002.70 1001.73 1000.82 999.98 999.23 998.59 998.04 997.59 997.24 996.97 996.78 996.65 996.58 996.56 996.56 996.59 996.63 996.69 996.75 996.81 996.90 997.01 997.17 997.39 997.70
1009.26 1009.66 1010.04 1010.39 1010.67 1010.86 1010.95 1010.92 1010.77 1010.49 1010.09 1009.57 1008.93 1008.18 1007.34 1006.44 1005.48 1004.49 1003.50 1002.52 1001.59 1000.71 999.91 999.18 998.56 998.03 997.59 997.25 997.01 996.84 996.75 996.73 996.75 996.82 996.92 997.03 997.16 997.29 997.43 997.58 997.76 997.97 998.25 998.60
1010.39 1010.77 1011.12 1011.40 1011.59 1011.67 1011.63 1011.47 1011.19 1010.77 1010.25 1009.61 1008.88 1008.05 1007.17 1006.22 1005.25 1004.27 1003.29 1002.34 1001.43 1000.58 999.81 999.12 998.53 998.03 997.63 997.34 997.14 997.03 997.00 997.05 997.15 997.29 997.47 997.67 997.88 998.09 998.31 998.53 998.76 999.03 999.34 999.73
1011.37 1011.73 1012.03 1012.23 1012.33 1012.30 1012.15 1011.87 1011.47 1010.95 1010.32 1009.61 1008.80 1007.93 1007.00 1006.03 1005.05 1004.06 1003.09 1002.16 1001.27 1000.45 999.71 999.06 998.51 998.06 997.72 997.49 997.37 997.34 997.39 997.52 997.71 997.94 998.21 998.49 998.77 999.05 999.33 999.61 999.90 1000.21 1000.57 1000.97
1012.10 1012.42 1012.66 1012.79 1012.80 1012.68 1012.43 1012.06 1011.58 1010.99 1010.31 1009.54 1008.70 1007.81 1006.86 1005.88 1004.89 1003.91 1002.94 1002.01 1001.14 1000.34 999.64 999.03 998.53 998.15 997.88 997.73 997.69 997.75 997.90 998.12 998.39 998.71 999.04 999.39 999.74 1000.08 1000.41 1000.74 1001.07 1001.42 1001.80 1002.22
1012.53 1012.81 1013.00 1013.06 1012.99 1012.80 1012.49 1012.07 1011.54 1010.93 1010.22 1009.45 1008.61 1007.71 1006.77 1005.79 1004.81 1003.82 1002.86 1001.94 1001.08 1000.31 999.63 999.07 998.62 998.31 998.12 998.06 998.11 998.26 998.50 998.80 999.15 999.53 999.92 1000.32 1000.71 1001.09 1001.45 1001.81 1002.18 1002.55 1002.96 1003.41
1012.72 1012.96 1013.09 1013.09 1012.97 1012.72 1012.37 1011.93 1011.39 1010.78 1010.09 1009.34 1008.53 1007.65 1006.74 1005.78 1004.81 1003.84 1002.88 1001.97 1001.13 1000.37 999.73 999.21 998.82 998.57 998.46 998.48 998.62 998.85 999.16 999.53 999.94 1000.37 1000.80 1001.23 1001.64 1002.04 1002.42 1002.80 1003.19 1003.59 1004.02 1004.49
1012.77 1012.97 1013.04 1012.98 1012.81 1012.53 1012.15 1011.70 1011.18 1010.60 1009.95 1009.25 1008.48 1007.66 1006.78 1005.86 1004.91 1003.96 1003.02 1002.12 1001.29 1000.56 999.95 999.47 999.14 998.95 998.91 999.00 999.21 999.51 999.88 1000.30 1000.75 1001.21 1001.65 1002.09 1002.51 1002.91 1003.30 1003.69 1004.09 1004.51 1004.97 1005.46
1012.80 1012.94 1012.95 1012.84 1012.62 1012.30 1011.92 1011.48 1010.98 1010.43 1009.84 1009.19 1008.49 1007.72 1006.90 1006.02 1005.11 1004.19 1003.27 1002.40 1001.59 1000.89 1000.31 999.87 999.58 999.44 999.45 999.60 999.87 1000.22 1000.63 1001.08 1001.55 1002.02 1002.48 1002.91 1003.33 1003.73 1004.12 1004.51 1004.92 1005.36 1005.84 1006.36
1012.89 1012.97 1012.92 1012.75 1012.48 1012.14 1011.74 1011.30 1010.83 1010.32 1009.78 1009.19 1008.55 1007.85 1007.08 1006.26 1005.40 1004.51 1003.63 1002.79 1002.01 1001.34 1000.79 1000.38 1000.13 1000.04 1000.09 1000.28 1000.58 1000.97 1001.41 1001.87 1002.35 1002.82 1003.27 1003.70 1004.11 1004.50 1004.89 1005.29 1005.71 1006.16 1006.66 1007.20
1013.05 1013.08 1012.97 1012.74 1012.43 1012.06 1011.65 1011.22 1010.76 1010.29 1009.79 1009.26 1008.67 1008.03 1007.33 1006.56 1005.75 1004.91 1004.08 1003.27 1002.53 1001.89 1001.38 1001.01 1000.79 1000.73 1000.81 1001.03 1001.35 1001.75 1002.20 1002.67 1003.15 1003.61 1004.06 1004.48 1004.87 1005.26 1005.65 1006.05 1006.48 1006.94 1007.46 1008.02
1013.27 1013.24 1013.09 1012.82 1012.48 1012.08 1011.66 1011.23 1010.79 1010.35 1009.89 1009.40 1008.86 1008.28 1007.63 1006.92 1006.17 1005.39 1004.60 1003.85 1003.15 1002.55 1002.07 1001.73 1001.54 1001.50 1001.60 1001.83 1002.16 1002.56 1003.01 1003.48 1003.95 1004.41 1004.84 1005.25 1005.64 1006.02 1006.41 1006.81 1007.25 1007.73 1008.25 1008.83
1013.45 1013.40 1013.22 1012.93 1012.57 1012.17 1011.75 1011.33 1010.91 1010.49 1010.06 1009.61 1009.13 1008.59 1008.00 1007.35 1006.66 1005.93 1005.21 1004.50 1003.86 1003.31 1002.86 1002.55 1002.38 1002.36 1002.47 1002.70 1003.02 1003.42 1003.85 1004.31 1004.76 1005.20 1005.62 1006.02 1006.41 1006.78 1007.17 1007.58 1008.02 1008.50 1009.03 1009.61
Thickness
5465 5471 5468 5469 5471 5467 5462 5463 5462 5474 5475 5489 5489 5483 5480 5477 5474 5473 5474 5473 5471 5468 5465 5464 5462 5461 5459 5457 5457 5456 5455 5454 5453 5452 5451 5451 5451 5451 5451 5451 5451 5450 5449 5448
5456 5463 5461 5464 5471 5469 5467 5466 5466 5469 5476 5488 5483 5477 5474 5472 5471 5470 5470 5469 5467 5464 5461 5459 5457 5455 5453 5451 5450 5449 5448 5448 5447 5446 5445 5444 5445 5444 5444 5444 5443 5442 5442 5441
5450 5451 5454 5460 5473 5470 5467 5467 5467 5468 5479 5480 5475 5473 5472 5469 5468 5467 5466 5464 5462 5459 5456 5454 5452 5450 5447 5446 5444 5443 5442 5441 5440 5439 5438 5438 5438 5437 5437 5437 5436 5435 5434 5434
5438 5441 5449 5481 5479 5475 5471 5471 5469 5470 5472 5472 5472 5470 5469 5466 5463 5462 5461 5459 5457 5454 5452 5450 5447 5444 5442 5440 5438 5437 5435 5434 5434 5433 5432 5432 5430 5430 5430 5430 5429 5428 5427 5426
5429 5434 5450 5469 5473 5467 5463 5466 5469 5467 5468 5467 5464 5461 5463 5464 5461 5459 5457 5455 5452 5449 5446 5444 5441 5439 5436 5434 5432 5431 5430 5428 5428 5428 5426 5425 5424 5424 5423 5422 5421 5420 5419 5419
5424 5433 5447 5471 5471 5467 5463 5460 5468 5463 5461 5459 5454 5451 5457 5459 5455 5453 5451 5449 5446 5443 5440 5438 5436 5434 5431 5429 5427 5426 5425 5424 5424 5422 5421 5420 5418 5417 5415 5414 5414 5413 5412 5411
5421 5426 5443 5460 5459 5459 5452 5463 5465 5460 5456 5451 5448 5449 5450 5449 5447 5446 5445 5443 5441 5437 5435 5434 5431 5428 5426 5425 5423 5422 5421 5419 5418 5417 5415 5414 5411 5409 5407 5406 5405 5405 5404 5404
5416 5422 5443 5456 5449 5449 5456 5458 5457 5454 5451 5447 5444 5443 5442 5441 5440 5439 5437 5436 5434 5432 5430 5428 5426 5424 5422 5420 5419 5417 5415 5413 5411 5410 5409 5407 5404 5402 5400 5399 5397 5396 5396 5395
5431 5447 5455 5449 5450 5452 5450 5448 5449 5446 5443 5440 5437 5436 5435 5434 5432 5431 5430 5429 5427 5425 5423 5422 5420 5419 5416 5415 5413 5411 5408 5406 5404 5403 5401 5399 5397 5395 5393 5391 5390 5390 5389 5389
5424 5439 5445 5444 5444 5444 5442 5441 5442 5439 5436 5433 5431 5430 5429 5427 5426 5424 5423 5422 5421 5419 5416 5415 5413 5412 5410 5409 5407 5404 5402 5400 5398 5396 5394 5391 5390 5388 5387 5385 5384 5384 5384 5384
5424 5435 5438 5442 5440 5440 5438 5436 5434 5432 5430 5428 5425 5423 5421 5420 5419 5417 5417 5416 5414 5413 5411 5409 5408 5406 5404 5402 5400 5397 5395 5393 5391 5390 5387 5385 5383 5381 5381 5381 5380 5380 5379 5379
5437 5441 5436 5441 5441 5437 5433 5432 5430 5426 5423 5421 5418 5417 5415 5412 5411 5410 5409 5409 5407 5406 5405 5403 5401 5400 5398 5396 5394 5391 5390 5388 5385 5383 5380 5378 5376 5375 5375 5375 5375 5375 5375 5374
5441 5440 5436 5436 5433 5431 5428 5426 5424 5420 5418 5415 5413 5410 5408 5406 5405 5404 5403 5402 5401 5401 5399 5398 5396 5394 5392 5390 5389 5387 5385 5383 5380 5377 5374 5372 5371 5370 5369 5369 5369 5369 5369 5369
5433 5431 5428 5428 5426 5424 5421 5419 5416 5413 5411 5409 5406 5403 5401 5399 5398 5397 5396 5396 5395 5394 5393 5391 5389 5388 5387 5385 5383 5381 5379 5378 5376 5373 5370 5368 5366 5365 5364 5363 5363 5363 5364 5364
5425 5424 5424 5422 5419 5416 5414 5411 5408 5405 5403 5401 5399 5397 5395 5393 5392 5391 5390 5389 5388 5387 5386 5384 5383 5382 5381 5380 5378 5377 5374 5372 5370 5368 5366 5363 5361 5360 5359 5358 5358 5358 5358 5358
5419 5417 5415 5414 5412 5409 5406 5403 5401 5400 5397 5395 5393 5392 5390 5388 5387 5385 5384 5382 5380 5380 5379 5378 5377 5377 5375 5374 5373 5371 5369 5368 5366 5363 5361 5359 5357 5356 5355 5354 5354 5353 5353 5354
5412 5410 5408 5407 5406 5403 5400 5399 5397 5395 5392 5390 5389 5387 5384 5382 5380 5379 5377 5376 5374 5374 5373 5373 5373 5372 5370 5369 5368 5366 5364 5362 5361 5359 5357 5355 5354 5352 5351 5350 5350 5350 5349 5350
5413 5412 5409 5406 5403 5399 5395 5393 5391 5389 5387 5385 5383 5380 5378 5376 5375 5373 5372 5370 5368 5367 5367 5367 5368 5367 5366 5365 5363 5361 5359 5357 5356 5355 5353 5351 5350 5349 5348 5347 5346 5346 5345 5346
5407 5405 5402 5400 5397 5393 5390 5387 5385 5383 5381 5379 5376 5374 5372 5371 5370 5368 5365 5363 5362 5362 5362 5362 5363 5362 5361 5360 5358 5356 5354 5353 5351 5350 5348 5348 5347 5345 5344 5343 5342 5341 5341 5341
5399 5397 5394 5392 5389 5386 5384 5381 5378 5375 5373 5371 5369 5367 5366 5365 5363 5361 5359 5358 5358 5358 5358 5358 5358 5357 5355 5354 5354 5351 5350 5348 5347 5345 5344 5343 5342 5341 5339 5338 5337 5337 5337 5336
5390 5388 5386 5383 5380 5378 5376 5373 5371 5368 5367 5365 5363 5362 5361 5359 5357 5355 5354 5353 5354 5353 5353 5354 5353 5352 5351 5350 5349 5347 5345 5344 5342 5341 5340 5339 5338 5337 5335 5334 5333 5333 5332 5332
5380 5378 5377 5374 5371 5369 5367 5365 5363 5361 5359 5358 5357 5356 5354 5353 5351 5350 5349 5349 5349 5349 5348 5348 5347 5347 5346 5345 5343 5342 5341 5339 5338 5336 5335 5334 5333 5332 5331 5330 5329 5329 5328 5328
5371 5369 5367 5365 5362 5360 5358 5356 5355 5353 5352 5351 5350 5349 5348 5347 5346 5345 5344 5344 5343 5343 5342 5341 5342 5342 5341 5339 5338 5337 5335 5334 5333 5331 5330 5329 5328 5327 5326 5325 5325 5324 5324 5323
5362 5360 5358 5355 5352 5350 5349 5348 5346 5345 5344 5343 5343 5343 5341 5340 5339 5339 5338 5339 5338 5337 5336 5336 5336 5336 5334 5332 5331 5330 5330 5328 5327 5326 5324 5323 5322 5322 5321 5320 5320 5319 5319 5318
5352 5350 5348 5346 5344 5343 5342 5340 5338 5336 5336 5335 5335 5335 5334 5334 5333 5332 5331 5331 5331 5330 5329 5329 5330 5329 5326 5325 5324 5324 5323 5322 5321 5320 5319 5318 5317 5316 5315 5314 5314 5313 5313 5313
5343 5341 5340 5338 5337 5335 5333 5332 5331 5330 5330 5329 5328 5327 5326 5326 5325 5325 5324 5323 5323 5323 5322 5322 5322 5321 5319 5318 5318 5317 5317 5315 5314 5313 5312 5312 5311 5310 5309 5308 5308 5308 5308 5307
5332 5331 5329 5328 5328 5326 5325 5324 5324 5323 5323 5322 5321 5319 5318 5318 5317 5317 5316 5316 5316 5315 5315 5315 5314 5314 5313 5312 5311 5310 5310 5309 5307 5306 5305 5304 5304 5303 5303 5302 5302 5302 5301 5301